AL7PB Weather Reports


time (UTC)temp
C
wind
direction
speed
KPH
gust
KPH
rain 1hr
cm
rain 24hr
cm
rain mn
cm
humidity
%
barometer
mb
20260510061114 24 0 0.0 0.0 0.00 0.00 0.00 62 1006.8
20260510060216 25 0 0.0 0.0 0.00 0.00 0.00 61 1006.8
20260510055403 25 0 0.0 0.0 0.00 0.00 0.00 62 1006.7
20260510054503 24 0 0.0 0.0 0.00 0.00 0.00 62 1006.8
20260510053603 24 0 0.0 0.0 0.00 0.00 0.00 62 1006.8
20260510052703 24 0 0.0 0.0 0.00 0.00 0.00 62 1006.8
20260510052017 24 0 0.0 0.0 0.00 0.00 0.00 62 1006.8
20260510050903 24 0 0.0 0.0 0.00 0.00 0.00 62 1006.9
20260510050003 24 0 0.0 0.0 0.00 0.00 0.00 62 1007.0
20260510045403 24 0 0.0 0.0 0.00 0.00 0.00 61 1007.0
20260510044503 24 0 0.0 0.0 0.00 0.00 0.00 61 1007.0
20260510043603 24 0 0.0 0.0 0.00 0.00 0.00 60 1007.1
20260510042703 25 0 0.0 0.0 0.00 0.00 0.00 60 1007.1
20260510041804 25 0 0.0 0.0 0.00 0.00 0.00 59 1007.1
20260510040903 25 0 0.0 0.0 0.00 0.00 0.00 59 1007.1
20260510040217 25 0 0.0 0.0 0.00 0.00 0.00 58 1007.1
20260510035614 25 0 0.0 0.0 0.00 0.00 0.00 58 1007.1
20260510034503 25 0 0.0 0.0 0.00 0.00 0.00 59 1007.0
20260510033603 25 0 0.0 0.0 0.00 0.00 0.00 59 1007.0
20260510032703 25 0 0.0 0.0 0.00 0.00 0.00 58 1006.9
20260510032013 25 0 0.0 0.0 0.00 0.00 0.00 58 1006.9
20260510030903 25 0 0.0 0.0 0.00 0.00 0.00 59 1006.9
20260510030003 25 0 0.0 0.0 0.00 0.00 0.00 60 1006.9
20260510025403 25 0 0.0 0.0 0.00 0.00 0.00 60 1006.9
20260510024503 25 0 0.0 0.0 0.00 0.00 0.00 60 1007.0
20260510023603 26 0 0.0 0.0 0.00 0.00 0.00 59 1006.9
20260510022917 26 0 0.0 0.0 0.00 0.00 0.00 59 1006.9
20260510022014 26 0 0.0 0.0 0.00 0.00 0.00 57 1006.9
20260510021116 26 0 0.0 0.0 0.00 0.00 0.00 55 1006.7
20260510020214 26 0 0.0 0.0 0.00 0.00 0.00 53 1006.4
20260510015403 26 0 0.0 0.0 0.00 0.00 0.00 51 1006.3
20260510014503 26 0 0.0 0.0 0.00 0.00 0.00 47 1006.3
20260510013815 27 0 0.0 0.0 0.00 0.00 0.00 46 1006.2
20260510012917 27 0 0.0 0.0 0.00 0.00 0.00 44 1006.2
20260510012015 28 0 0.0 0.0 0.00 0.00 0.00 42 1006.0
20260510010903 30 0 0.0 0.0 0.00 0.00 0.00 39 1006.0
20260510010003 30 0 0.0 0.0 0.00 0.00 0.00 37 1006.1
20260510005616 31 0 0.0 0.0 0.00 0.00 0.00 36 1006.2
20260510004713 31 0 0.0 0.0 0.00 0.00 0.00 34 1006.1
20260510003603 32 0 0.0 0.0 0.00 0.00 0.00 32 1006.1
20260510002913 32 0 0.0 0.0 0.00 0.00 0.00 31 1006.1
20260510001803 32 0 0.0 0.0 0.00 0.00 0.00 30 1006.1
20260510001113 32 0 0.0 0.0 0.00 0.00 0.00 30 1006.1
20260510000215 33 0 0.0 0.0 0.00 0.00 0.00 30 1006.1
20260509235617 33 0 0.0 0.0 0.00 0.00 0.00 30 1006.1
20260509234714 33 0 0.0 0.0 0.00 0.00 0.00 30 1006.1
20260509233603 33 0 0.0 0.0 0.00 0.00 0.00 30 1006.2
20260509232913 33 0 0.0 0.0 0.00 0.00 0.00 30 1006.2
20260509232016 33 0 0.0 0.0 0.00 0.00 0.00 29 1006.2
20260509231113 33 0 0.0 0.0 0.00 0.00 0.00 29 1006.3
20260509230216 33 0 0.0 0.0 0.00 0.00 0.00 29 1006.4
20260509225617 33 0 0.0 0.0 0.00 0.00 0.00 30 1006.3
20260509224714 33 0 0.0 0.0 0.00 0.00 0.00 29 1006.3
20260509223817 33 0 0.0 0.0 0.00 0.00 0.00 26 1006.3
20260509222914 33 0 0.0 0.0 0.00 0.00 0.00 28 1006.3
20260509222017 34 0 0.0 0.0 0.00 0.00 0.00 28 1006.3
20260509220903 33 0 0.0 0.0 0.00 0.00 0.00 30 1006.4
20260509220003 33 0 0.0 0.0 0.00 0.00 0.00 29 1006.3
20260509215403 33 0 0.0 0.0 0.00 0.00 0.00 30 1006.4
20260509214715 33 0 0.0 0.0 0.00 0.00 0.00 31 1006.4
20260509213603 33 0 0.0 0.0 0.00 0.00 0.00 29 1006.6
20260509212915 33 0 0.0 0.0 0.00 0.00 0.00 32 1006.6
20260509212017 33 0 0.0 0.0 0.00 0.00 0.00 31 1006.7
20260509210903 33 0 0.0 0.0 0.00 0.00 0.00 33 1006.9
20260509210217 33 0 0.0 0.0 0.00 0.00 0.00 32 1007.0
20260509205613 33 0 0.0 0.0 0.00 0.00 0.00 32 1007.1
20260509204503 33 0 0.0 0.0 0.00 0.00 0.00 33 1007.3
20260509203603 33 0 0.0 0.0 0.00 0.00 0.00 34 1007.5
20260509202915 33 0 0.0 0.0 0.00 0.00 0.00 35 1007.5
20260509202013 33 0 0.0 0.0 0.00 0.00 0.00 34 1007.7
20260509200903 33 0 0.0 0.0 0.00 0.00 0.00 35 1007.8
20260509200217 33 0 0.0 0.0 0.00 0.00 0.00 36 1007.8
20260509195403 33 0 0.0 0.0 0.00 0.00 0.00 36 1008.0
20260509194716 33 0 0.0 0.0 0.00 0.00 0.00 37 1008.1
20260509193603 32 0 0.0 0.0 0.00 0.00 0.00 38 1008.3
20260509192916 32 0 0.0 0.0 0.00 0.00 0.00 38 1008.4
20260509192013 32 0 0.0 0.0 0.00 0.00 0.00 39 1008.4
20260509191116 32 0 0.0 0.0 0.00 0.00 0.00 41 1008.5
20260509190003 32 0 0.0 0.0 0.00 0.00 0.00 38 1008.6
20260509185403 32 0 0.0 0.0 0.00 0.00 0.00 40 1008.7
20260509184717 32 0 0.0 0.0 0.00 0.00 0.00 40 1008.7
20260509183814 32 0 0.0 0.0 0.00 0.00 0.00 41 1008.8
20260509182703 32 0 0.0 0.0 0.00 0.00 0.00 43 1008.9
20260509182014 31 0 0.0 0.0 0.00 0.00 0.00 42 1009.0
20260509181116 31 0 0.0 0.0 0.00 0.00 0.00 44 1009.1
20260509180214 31 0 0.0 0.0 0.00 0.00 0.00 46 1009.2
20260509175615 31 0 0.0 0.0 0.00 0.00 0.00 46 1009.3
20260509174713 31 0 0.0 0.0 0.00 0.00 0.00 46 1009.5
20260509173603 30 0 0.0 0.0 0.00 0.00 0.00 46 1009.6
20260509172917 31 0 0.0 0.0 0.00 0.00 0.00 47 1009.7
20260509172015 30 0 0.0 0.0 0.00 0.00 0.00 47 1009.8
20260509171117 30 0 0.0 0.0 0.00 0.00 0.00 50 1010.0
20260509170214 30 0 0.0 0.0 0.00 0.00 0.00 51 1010.0
20260509165403 30 0 0.0 0.0 0.00 0.00 0.00 51 1010.1
20260509164713 29 0 0.0 0.0 0.00 0.00 0.00 54 1010.1
20260509163603 28 0 0.0 0.0 0.00 0.00 0.00 54 1010.2
20260509162913 28 0 0.0 0.0 0.00 0.00 0.00 56 1010.3
20260509161803 28 0 0.0 0.0 0.00 0.00 0.00 57 1010.3
20260509160903 27 0 0.0 0.0 0.00 0.00 0.00 60 1010.2
20260509160003 27 0 0.0 0.0 0.00 0.00 0.00 61 1010.3
20260509155403 27 0 0.0 0.0 0.00 0.00 0.00 63 1010.3
20260509154714 26 0 0.0 0.0 0.00 0.00 0.00 62 1010.3
20260509153603 26 0 0.0 0.0 0.00 0.00 0.00 64 1010.3
20260509152913 26 0 0.0 0.0 0.00 0.00 0.00 67 1010.3
20260509151803 25 0 0.0 0.0 0.00 0.00 0.00 70 1010.3
20260509151113 25 0 0.0 0.0 0.00 0.00 0.00 71 1010.4
20260509150216 25 0 0.0 0.0 0.00 0.00 0.00 73 1010.4
20260509145617 24 0 0.0 0.0 0.00 0.00 0.00 74 1010.5
20260509144503 23 0 0.0 0.0 0.00 0.00 0.00 77 1010.6
20260509143603 23 0 0.0 0.0 0.00 0.00 0.00 79 1010.7
20260509142914 23 0 0.0 0.0 0.00 0.00 0.00 79 1010.7
20260509141803 22 0 0.0 0.0 0.00 0.00 0.00 81 1010.7
20260509140903 22 0 0.0 0.0 0.00 0.00 0.00 84 1010.7
20260509140221 21 0 0.0 0.0 0.00 0.00 0.00 85 1010.7
20260509135403 21 0 0.0 3.2 0.00 0.00 0.00 87 1010.7
20260509134503 20 0 0.0 0.0 0.00 0.00 0.00 89 1010.7
20260509133817 20 0 0.0 0.0 0.00 0.00 0.00 89 1010.7
20260509132703 19 0 0.0 0.0 0.00 0.00 0.00 90 1010.6
20260509132017 18 0 0.0 0.0 0.00 0.00 0.00 90 1010.6
20260509131114 19 0 0.0 0.0 0.00 0.00 0.00 89 1010.6
20260509130217 19 0 0.0 0.0 0.00 0.00 0.00 90 1010.6
20260509125403 19 0 0.0 0.0 0.00 0.00 0.00 90 1010.4
20260509124716 18 0 0.0 0.0 0.00 0.00 0.00 91 1010.2
20260509123603 18 0 0.0 0.0 0.00 0.00 0.00 91 1010.2
20260509122915 18 0 0.0 0.0 0.00 0.00 0.00 92 1010.1
20260509121803 17 0 0.0 0.0 0.00 0.00 0.00 91 1009.9
20260509120903 17 0 0.0 0.0 0.00 0.00 0.00 91 1009.8
20260509120003 16 0 0.0 0.0 0.00 0.00 0.00 90 1009.8
20260509115614 16 0 0.0 0.0 0.00 0.00 0.00 90 1009.8
20260509114503 17 0 0.0 0.0 0.00 0.00 0.00 89 1009.6
20260509113603 17 0 0.0 0.0 0.00 0.00 0.00 89 1009.4
20260509112916 17 0 0.0 0.0 0.00 0.00 0.00 89 1009.4
20260509112013 17 0 0.0 0.0 0.00 0.00 0.00 89 1009.2
20260509111116 17 0 0.0 0.0 0.00 0.00 0.00 89 1009.2
20260509110003 17 0 0.0 0.0 0.00 0.00 0.00 89 1009.1
20260509105615 17 0 0.0 0.0 0.00 0.00 0.00 88 1009.1
20260509104503 17 0 0.0 0.0 0.00 0.00 0.00 88 1009.2
20260509103603 17 0 0.0 0.0 0.00 0.00 0.00 87 1009.4
20260509102917 17 0 0.0 0.0 0.00 0.00 0.00 86 1009.3
20260509102014 17 0 0.0 0.0 0.00 0.00 0.00 86 1009.2
20260509101116 17 0 0.0 0.0 0.00 0.00 0.00 85 1009.1
20260509100214 17 0 0.0 0.0 0.00 0.00 0.00 85 1009.1
20260509095615 18 0 0.0 0.0 0.00 0.00 0.00 84 1009.2
20260509094503 18 0 0.0 0.0 0.00 0.00 0.00 83 1009.3
20260509093815 18 0 0.0 0.0 0.00 0.00 0.00 82 1009.3
20260509092917 18 0 0.0 0.0 0.00 0.00 0.00 81 1009.4
20260509091803 18 0 0.0 0.0 0.00 0.00 0.00 81 1009.6
20260509090903 18 0 0.0 0.0 0.00 0.00 0.00 80 1009.7
20260509090003 18 0 0.0 0.0 0.00 0.00 0.00 80 1009.6
20260509085616 18 0 0.0 0.0 0.00 0.00 0.00 80 1009.6
20260509084713 18 0 0.0 0.0 0.00 0.00 0.00 79 1009.7
20260509083603 18 0 0.0 0.0 0.00 0.00 0.00 78 1009.5
20260509082913 19 0 0.0 0.0 0.00 0.00 0.00 79 1009.8
20260509081803 18 0 0.0 0.0 0.00 0.00 0.00 80 1009.9
20260509081113 18 0 0.0 0.0 0.00 0.00 0.00 80 1010.1
20260509080215 18 0 0.0 0.0 0.00 0.00 0.00 81 1010.2
20260509075403 18 0 0.0 0.0 0.00 0.00 0.00 80 1010.1
20260509074714 19 0 0.0 0.0 0.00 0.00 0.00 80 1010.1
20260509073816 19 0 0.0 0.0 0.00 0.00 0.00 81 1010.2
20260509072703 20 0 0.0 0.0 0.00 0.00 0.00 84 1011.0
20260509071803 20 0 0.0 0.0 0.00 0.00 0.00 85 1010.7
20260509070903 20 0 0.0 0.0 0.00 0.00 0.00 87 1010.9
20260509070216 20 0 0.0 0.0 0.00 0.00 0.00 87 1010.9
20260509065617 21 0 0.0 0.0 0.00 0.00 0.00 90 1010.8
20260509064714 20 0 0.0 0.0 0.00 0.00 0.00 91 1010.8
20260509063603 20 0 0.0 0.0 0.00 0.00 0.00 91 1010.6
20260509062914 20 0 0.0 0.0 0.00 0.00 0.00 91 1010.2
20260509062016 20 0 0.0 0.0 0.00 0.00 0.00 91 1009.7